Flag for Germany Weather past 2 weeks in Fellbach, Baden-Württemberg, Germany

Now
55 °F

Broken clouds.


Feels Like: 55 °F
Forecast: 41 / 59 °F
Wind: 5 mph from North

Location: Stuttgart-Echterdingen

Current Time: May 26, 2015 at 10:57:33 AM

Latest Report: May 26, 2015 at 10:20 AM


Visibility: N/A

Pressure: 30.04 "Hg

Humidity: 77%

Dew point: 48 °F

Location of FellbachLocation

Historic Weather in Fellbach — Graph

°F

Fellbach temperature yesterday

Maximum temperature yesterday: 66 °F (at 11:20 AM)
Minimum temperature yesterday: 54 °F (at 5:50 AM)
Average temperature yesterday: 57 °F

Past Weeks' High & Low Weather Summary

 TemperatureHumidityPressure
High84 °F (May 12, 2:20 PM)100% (May 15, 4:20 AM)30.30 "Hg (May 15, 4:20 AM)
Low37 °F (May 22, 5:50 AM)25% (May 18, 6:20 PM)29.74 "Hg (May 18, 6:20 PM)
Average58 °F68%30.05 "Hg
* Reported May 11 9:20 AM — May 26 9:50 AM, Fellbach, Weather by CustomWeather, © 2015

Note: Actual official high and low records may vary slightly from our data, if they occured in-between our weather recording intervals... More about our weather records

Advertising

Fellbach weather history for previous 24 hours

 ConditionsComfort  
Time TempWeatherWind HumidityBarometerVisibility
9:50 AM
Tue, May 26
54 °FBroken clouds.7 mph82%30.04 "HgN/A
9:20 AM54 °FPartly sunny.8 mph82%30.04 "HgN/A
8:50 AM54 °FPartly sunny.7 mph82%30.01 "HgN/A
8:20 AM52 °FPartly sunny.6 mph88%30.01 "HgN/A
7:50 AM52 °FBroken clouds.8 mph88%30.01 "HgN/A
7:20 AM52 °FPartly sunny.8 mph88%30.01 "HgN/A
6:50 AM52 °FBroken clouds.9 mph88%29.98 "HgN/A
6:20 AM52 °FPartly cloudy.7 mph88%29.98 "HgN/A
5:50 AM52 °FPassing clouds.9 mph88%29.98 "HgN/A
5:20 AM52 °FPassing clouds.7 mph94%29.98 "HgN/A
4:50 AM52 °FLight rain. Passing clouds.8 mph94%29.95 "HgN/A
4:20 AM52 °FLight rain. Passing clouds.7 mph100%29.95 "HgN/A
3:50 AM52 °FPassing clouds.7 mph100%29.95 "HgN/A
3:20 AM52 °FPartly cloudy.6 mph94%29.95 "HgN/A
2:50 AM52 °FPartly cloudy.5 mph94%29.95 "HgN/A
2:20 AM54 °FPartly cloudy.5 mph88%29.95 "HgN/A
1:50 AM52 °FPassing clouds.5 mph100%29.95 "HgN/A
1:20 AM52 °FPassing clouds.5 mph94%29.95 "HgN/A
12:50 AM54 °FPartly cloudy.6 mph94%29.98 "HgN/A
12:20 AM54 °FPartly cloudy.3 mph94%29.95 "HgN/A
11:50 PM
Mon, May 25
54 °FPassing clouds.3 mph94%29.95 "HgN/A
11:20 PM54 °FPartly cloudy.5 mph94%29.95 "HgN/A
10:20 PM54 °FSprinkles. Passing clouds.5 mph94%29.95 "HgN/A
9:50 PM54 °FSprinkles. Broken clouds.1 mph94%29.95 "HgN/A
9:20 PM54 °FSprinkles. Broken clouds.5 mph94%29.95 "HgN/A
8:50 PM55 °FPartly sunny.6 mph88%29.95 "HgN/A
8:20 PM55 °FBroken clouds.7 mph88%29.95 "HgN/A
7:50 PM55 °FSprinkles. Broken clouds.10 mph94%29.95 "HgN/A
7:20 PM55 °FSprinkles. Broken clouds.6 mph94%29.95 "HgN/A
6:50 PM54 °FSprinkles. Partly sunny.7 mph94%29.95 "Hg3 mi
6:20 PM57 °FSprinkles. Broken clouds.8 mph94%29.92 "HgN/A
5:50 PM57 °FBroken clouds.8 mph88%29.92 "HgN/A
5:20 PM57 °FBroken clouds.6 mph94%29.92 "HgN/A
4:50 PM57 °FSprinkles. Broken clouds.7 mph88%29.92 "HgN/A
4:20 PM57 °FSprinkles. Broken clouds.6 mph88%29.92 "HgN/A
3:50 PM61 °FSprinkles. Broken clouds.2 mph83%29.92 "HgN/A
3:20 PM61 °FBroken clouds.1 mph77%29.92 "HgN/A
2:50 PM59 °FBroken clouds.2 mph82%29.95 "HgN/A
2:20 PM57 °FSprinkles. Broken clouds.9 mph94%29.95 "HgN/A
1:50 PM61 °FSprinkles. Broken clouds.5 mph72%29.95 "HgN/A
1:20 PM61 °FSprinkles. Broken clouds.5 mph72%29.95 "HgN/A
12:50 PM59 °FSprinkles. Broken clouds.9 mph82%29.95 "HgN/A
12:20 PM57 °FRain showers. Broken clouds.7 mph82%29.95 "HgN/A
11:50 AM64 °FSprinkles. Broken clouds.1 mph64%29.95 "HgN/A
11:20 AM66 °FBroken clouds.2 mph60%29.98 "HgN/A
10:50 AM64 °FBroken clouds.2 mph64%29.98 "HgN/A
10:20 AM61 °FPartly sunny.2 mph68%29.98 "HgN/A
Weather by CustomWeather, © 2015

See weather overviewHow to use our weather pages